User: anonymous   Login
Location: Unspecified
(0.0000°N, 0.0000°E)
Time: 00:46:28
(UTC+00:00)
Language:

Optus B1 - Orbit

View from above orbital plane
View from above orbital plane
View from above satellite
View from above satellite

Ground track
Ground track

The orbit data is extracted from the following two-line orbital elements,

1 22087U 92054A   17295.51215472 +.00000030 +00000-0 +00000-0 0  9993
2 22087 008.8686 044.9162 0004273 081.8929 339.4654 00.99202080103363
Epoch (UTC): 22 October 2017 12:17:30
Eccentricity: 0.0004273
inclination: 8.8686°
perigee height: 36070 km
apogee height: 36107 km
right ascension of ascending node: 44.9162°
argument of perigee: 81.8929°
revolutions per day: 0.99202080
mean anomaly at epoch: 339.4654°
orbit number at epoch: 10336

The dashed part of the orbit path shows where the satellite is in the earth's shadow,  

DLR